05:15
Airports
History
Links
Donate
Help keep this website running!
PayPal
Bitcoin
This page is community maintained. The information is intended for PC simulator navigation or reference.
Always use approved charts for navigation.
CT08
Gardner Lake
Gardner Lake (CT08)
Salem, Connecticut, United States (6420)
4
Lat/Lng:41° 30' 29.35" N / 72° 14' 37.29" W
41.508154 / -72.243691
Elevation:485'ft / 148mMSL
ID / ICAO:CT08
Runways:1
Longest:16-34
Grass 579m / 1,901ft
Nearby Weather04:56 GMT 2017-12-18
Nearby weather at KGON, Groton-new London located 16.0 nautical miles from CT08
Altimeter: 30.24
Visibility: 10.0 statute miles
Wind: 6 knots (from 030°)
Temp: -2°c / 28°f
Humidity: 50.0%

METAR: KGON 180456Z AUTO 03006KT 10SM FEW038 BKN047 OVC070 M02/M11 A3024 RMK AO2 SLP238 T10171106 400061061

(Powered by phpweather)
Nearby VORs <50NM
Nearby NDBs
Runway 16 / 34
Dimensions:579.4 x 18.3m 1901' x 60'ft
Surface:Grass
Runway 16 [A]Runway 34 [B]
Heading:145°TH 325°TH
Lat:
Lng:
41° 30' 37.13"N
72° 14' 44.29"W
41° 30' 21.58"N
72° 14' 30.28"W
User Notes and Comments
41° 30' 29.35" N / 72° 14' 37.29" W
Distance To
Airport ID:
Nearby Airports
(R) Gager Field 4.6 NM
CT36 NNE 31°
(R) Skis Landing Area 5.5 NM
CT07 NW 325°
(R) Devils Hopyard Field 6.6 NM
CT11 SW 228°
(R) Rankl Field 11.7 NM
CT20 WNW 303°
4 Salmon River Airfield 11.7 NM
9B8 WNW 298°
(U) Goodspeed 11.8 NM
42B WSW 248°
(C) Groton-new London 16.0 NM
KGON ( WX ) SE 140°
VFR Chart
Flight Planning at SkyVector.com